QFA65 YPPH-FAOR

Flight info

Callsign QFA65
Flight time N/A
Altitude 34000
Route OPEGA1/03 OPEGA DCT 33S108E 35S101E 36S095E 37S088E 38S082E DCT SUNKI UT451 RAXES DCT 35S051E 33S045E 31S040E DCT EGSOX Q21 ALENI UZ9 UNPOM UNPOM1A
Aircraft A332/H-SDE3GHIJ2J3J5M1RVWXY/LB2D1

Departure

Time N/A
Airport Perth International Airport (YPPH)

Arrival

Time 2026-05-03 20:21
Airport O.R. Tambo International Airport (FAOR)
Time Latitude Longitude Altitude Speed Heading
2026-05-03 20:15 -26.42466 28.16784 7995 ft 225 kts
2026-05-03 20:15 -26.40943 28.17183 7997 ft 226 kts 13°
2026-05-03 20:15 -26.39433 28.17664 7996 ft 226 kts 13°
2026-05-03 20:15 -26.37952 28.18134 7990 ft 226 kts 13°
2026-05-03 20:16 -26.36430 28.18612 7993 ft 226 kts 13°
2026-05-03 20:16 -26.34920 28.19081 7992 ft 225 kts 13°
2026-05-03 20:16 -26.33396 28.19551 8008 ft 220 kts 13°
2026-05-03 20:16 -26.32001 28.19983 8015 ft 202 kts 13°
2026-05-03 20:17 -26.30692 28.20390 8001 ft 189 kts 13°
2026-05-03 20:17 -26.29442 28.20779 7998 ft 186 kts 13°
2026-05-03 20:17 -26.28198 28.21164 7908 ft 185 kts 13°
2026-05-03 20:17 -26.26964 28.21548 7668 ft 183 kts 13°
2026-05-03 20:18 -26.25762 28.21922 7408 ft 174 kts 13°
2026-05-03 20:18 -26.24630 28.22276 7197 ft 162 kts 13°
2026-05-03 20:18 -26.23571 28.22605 7012 ft 155 kts 12°
2026-05-03 20:18 -26.22570 28.22916 6820 ft 145 kts 13°
2026-05-03 20:19 -26.21611 28.23214 6644 ft 142 kts 13°
2026-05-03 20:19 -26.20662 28.23508 6455 ft 142 kts 13°
2026-05-03 20:19 -26.19710 28.23804 6245 ft 142 kts 13°
2026-05-03 20:19 -26.18752 28.24102 6037 ft 143 kts 14°
2026-05-03 20:20 -26.17796 28.24399 5833 ft 142 kts 14°
2026-05-03 20:20 -26.16846 28.24694 5637 ft 142 kts 14°
2026-05-03 20:20 -26.15921 28.24982 5543 ft 127 kts 17°
2026-05-03 20:20 -26.15177 28.25218 5525 ft 100 kts 15°
2026-05-03 20:21 -26.14581 28.25400 5512 ft 72 kts 15°
2026-05-03 20:21 -26.14238 28.25474 5509 ft 30 kts 358°
2026-05-03 20:21 -26.14079 28.25450 5506 ft 20 kts 351°
2026-05-03 20:21 -26.14010 28.25438 5504 ft 7 kts 352°
2026-05-03 20:22 -26.13956 28.25430 5503 ft 9 kts 353°
2026-05-03 20:22 -26.13890 28.25424 5502 ft 10 kts 359°
2026-05-03 20:22 -26.13807 28.25432 5500 ft 14 kts 11°
2026-05-03 20:22 -26.13699 28.25463 5498 ft 18 kts 16°
2026-05-03 20:23 -26.13571 28.25506 5495 ft 20 kts 17°
2026-05-03 20:23 -26.13434 28.25521 5494 ft 19 kts 348°
2026-05-03 20:23 -26.13297 28.25491 5495 ft 22 kts 349°
2026-05-03 20:23 -26.13145 28.25456 5497 ft 22 kts 344°
2026-05-03 20:24 -26.13018 28.25390 5499 ft 19 kts 325°
2026-05-03 20:24 -26.12922 28.25290 5501 ft 20 kts 306°
2026-05-03 20:24 -26.12858 28.25139 5505 ft 23 kts 288°
2026-05-03 20:24 -26.12811 28.24956 5509 ft 27 kts 286°
2026-05-03 20:25 -26.12754 28.24736 5514 ft 31 kts 285°
2026-05-03 20:25 -26.12691 28.24490 5517 ft 35 kts 286°
2026-05-03 20:25 -26.12624 28.24228 5519 ft 34 kts 285°
2026-05-03 20:25 -26.12571 28.24012 5521 ft 13 kts 285°
2026-05-03 20:26 -26.12555 28.23903 5520 ft 15 kts 254°
2026-05-03 20:26 -26.12628 28.23853 5522 ft 11 kts 194°
2026-05-03 20:26 -26.12709 28.23829 5523 ft 14 kts 195°
2026-05-03 20:26 -26.12814 28.23798 5523 ft 20 kts 195°
2026-05-03 20:27 -26.12975 28.23748 5525 ft 26 kts 195°
2026-05-03 20:27 -26.13124 28.23690 5528 ft 14 kts 220°
2026-05-03 20:27 -26.13135 28.23642 5528 ft 7 kts 280°
2026-05-03 20:27 -26.13120 28.23532 5528 ft 18 kts 277°
2026-05-03 20:28 -26.13095 28.23430 5528 ft 5 kts 316°
2026-05-03 20:28 -26.13055 28.23398 5527 ft 9 kts 322°
2026-05-03 20:28 -26.13016 28.23363 5527 ft 0 kts 321°
2026-05-03 20:28 -26.13011 28.23359 5526 ft 0 kts 321°